Regional Weather Roundup
Issued by NWS

Home | Current Version | Previous Version | Text Only | Print | Product List | Glossary On
Versions: 1 2 3 4 5 6 7 8 9 10 11 12 13 14 15 16 17 18 19 20 21 22 23 24 25 26 27 28 29 30 31 32 33 34 35 36 37 38 39 40 41 42 43 44 45 46 47 48 49 50
000
ASUS45 KTFX 201310
RWRMT
MONTANA REGIONAL WEATHER ROUNDUP
NATIONAL WEATHER SERVICE GREAT FALLS MT
700 AM MDT THU JUL 20 2017

NOTE: "FAIR" INDICATES FEW OR NO CLOUDS BELOW 12000 FEET WITH NO
SIGNIFICANT WEATHER AND/OR OBSTRUCTIONS TO VISIBILITY.

MTZ001>007-043-201400-
WEST OF THE DIVIDE

CITY           SKY/WX    TMP DP  RH WIND       PRES   REMARKS
KALISPELL      CLEAR     51  45  79 NW5       29.94S
MISSOULA       CLEAR     59  44  57 SE3       29.99R
BUTTE          CLEAR     48  38  68 CALM      30.13R
MULLAN PASS    PTCLDY    54  34  46 NW8       30.13R
ANACONDA         N/A     55  39  54 S6        30.08S
DEER LODGE       N/A     52  43  71 CALM      30.09R
EUREKA           N/A     61  43  51 MISG      29.97
HAMILTON         N/A     63  43  48 S8        30.00S
LIBBY            N/A     52  43  71 SE3       29.97R
$$

MTZ008-052>055-201400-
SOUTHWEST MONTANA

CITY           SKY/WX    TMP DP  RH WIND       PRES   REMARKS
BOZEMAN        CLEAR     54  43  66 SE7       30.05R
DILLON         CLOUDY    53  33  46 S12       30.09S
W YELLOWSTONE  CLEAR     43  34  70 CALM      30.23S
ENNIS          CLEAR     61  27  27 VRB3      30.15R
THREE FORKS      N/A     49  44  83 CALM      30.03R
$$

MTZ009-010-012-014-046-048-049-054-201400-
EAST SLOPES AND CENTRAL MONTANA

CITY           SKY/WX    TMP DP  RH WIND       PRES   REMARKS
CUT BANK       PTCLDY    53  41  63 N6        29.98S
GREAT FALLS    CLEAR     59  36  42 SW7       29.96S
MALMSTROM AFB  PTCLDY    56  39  52 SW5       29.96S
HELENA         CLEAR     63  39  41 CALM      30.00R
CHOTEAU          N/A     57  36  44 SW5       30.00S
$$

MTZ011-013-016-021-045-047-050-051-201400-
NORTH CENTRAL MONTANA

CITY           SKY/WX    TMP DP  RH WIND       PRES   REMARKS
HAVRE          PTSUNNY   64  38  38 NE5       29.92S
LEWISTOWN        N/A     66  34  30 SE7       29.99S
N BAR RANCH      N/A     59  36  41 W6        30.04S
CHINOOK          N/A     61  43  51 E8        29.94S
$$

MTZ017>020-022>027-061-062-201400-
NORTHEAST MONTANA

CITY           SKY/WX    TMP DP  RH WIND       PRES   REMARKS
JORDAN           N/A     64  45  49 NE7       29.94R
SIDNEY         SUNNY     65  58  78 E3        29.96R
WOLF POINT     CLOUDY    60  52  74 SE3       29.96S
MALTA          SUNNY     61  50  67 CALM      29.95S
PLENTYWOOD       N/A     64  54  68 E5        30.00R
POPLAR           N/A     63  55  77 CALM      29.97R
$$

MTZ028>42-056>058-201400-
SOUTHCENTRAL AND SOUTHEAST MONTANA

CITY           SKY/WX    TMP DP  RH WIND       PRES   REMARKS
BAKER          SUNNY     73  62  68 S14       30.01F
BILLINGS       MOSUNNY   69  45  41 SW5       29.96R
LIVINGSTON     CLEAR     53  42  66 SW5       30.05R
MILES CITY     SUNNY     77  54  44 SE13      29.92F
BIG TIMBER     SUNNY     63  39  42 W10       30.06R
FORSYTH          N/A     73  54  49 E6        29.90F
LAUREL           N/A     64  44  48 CALM      29.96S
ROUNDUP          N/A     68  28  22 N1        29.89R
$$

REGIONAL REPORTS...DAKOTAS

CITY           SKY/WX    TMP DP  RH WIND       PRES   REMARKS
WILLISTON        N/A    N/A N/A N/A MISG      29.97R
MINOT          MOSUNNY   66  59  78 E5        30.01S
DICKINSON      MOSUNNY   71  62  73 S9        29.99S
BEACH            N/A     68  63  83 S6        30.03S
CROSBY           N/A     63  55  77 E9        30.00S
TIOGA            N/A     64  61  88 SE15G21   30.01S
WATFORD CITY     N/A     64  57  77 VRB5      29.98R
BISMARCK       CLOUDY    66  62  87 CALM      30.04R
GRAND FORKS    MOSUNNY   63  60  90 N7        30.00R
FARGO          CLOUDY    67  64  90 NE7       30.00R
BUFFALO SD       N/A     72  65  78 S15       30.00S
RAPID CITY     CLOUDY    70  65  84 E3        30.09R
$$

REGIONAL REPORTS...WYOMING/IDAHO/WASHINGTON

CITY           SKY/WX    TMP DP  RH WIND       PRES   REMARKS
GILLETTE       CLOUDY    73  55  53 S16       30.09S
SHERIDAN       CLOUDY    63  55  75 N5        30.00S
BUFFALO WY     CLOUDY    66  53  63 S12       30.09S
CODY           CLOUDY    66  39  37 SE9       30.10R
YELLOWSTONE LA   N/A     43  38  82 CALM      30.35S
IDAHO FALLS    CLOUDY    58  53  84 NW5       30.09R
BOISE          CLEAR     64  39  39 CALM      30.00R
SPOKANE        MOCLDY    63  46  54 S13       29.99R
$$

REGIONAL REPORTS...ALBERTA

CITY           SKY/WX    TMP DP  RH WIND       PRES   REMARKS
EDMONTON       SUNNY     54  52  94 E2        29.89F
CALGARY        MOCLDY    55  43  62 SW5       29.92R
LETHBRIDGE     PTCLDY    61  41  48 SW13      29.92S
MEDICINE HAT   SUNNY     54  48  82 CALM      29.89S
CARDSTON         N/A     54  43  66 N1          N/A
ONEFOUR          N/A     64  43  45 E8          N/A
$$

REGIONAL REPORTS...SASKATCHEWAN

CITY           SKY/WX    TMP DP  RH WIND       PRES   REMARKS
SWIFT CURRENT  SUNNY     57  50  77 S8        29.96S
REGINA         MOSUNNY   57  50  77 SE8       29.99F
SASKATOON      CLOUDY    55  52  88 VRB2      29.96R
CYPRESS HILLS    N/A     63  39  42 SE5         N/A
VAL MARIE        N/A     57  46  67 SW3         N/A
ROCKGLEN         N/A     61  52  72 E3          N/A
$$



USA.gov is the U.S. government's official web portal to all federal, state and local government web resources and services.